TimeCST,TemperatureF,Dew PointF,Humidity,Sea Level PressureIn,VisibilityMPH,Wind Direction,Wind SpeedMPH,Gust SpeedMPH,PrecipitationIn,Events,Conditions,WindDirDegrees,DateUTC
12:15 AM,28.4,28.4,100,29.48,1.8,WNW,26.5,32.2,N/A,,Overcast,290,2013-02-11 06:15:00
12:35 AM,28.4,26.6,93,29.49,1.8,WNW,27.6,-,N/A,,Overcast,290,2013-02-11 06:35:00
12:55 AM,28.4,26.6,93,29.51,2.0,WNW,25.3,34.5,N/A,,Overcast,290,2013-02-11 06:55:00
1:15 AM,28.4,26.6,93,29.52,3.0,WNW,24.2,33.4,N/A,Snow,Light Snow,290,2013-02-11 07:15:00
1:35 AM,28.4,26.6,93,29.53,2.5,WNW,28.8,35.7,N/A,,Overcast,290,2013-02-11 07:35:00
1:55 AM,28.4,26.6,93,29.55,3.0,WNW,26.5,35.7,N/A,Snow,Light Snow,300,2013-02-11 07:55:00
2:15 AM,28.4,26.6,93,29.56,0.8,WNW,25.3,36.8,N/A,,Overcast,290,2013-02-11 08:15:00
2:35 AM,28.4,26.6,93,29.58,0.8,WNW,25.3,36.8,N/A,Snow,Light Snow,290,2013-02-11 08:35:00
2:55 AM,28.4,26.6,93,29.59,1.2,WNW,31.1,40.3,N/A,,Overcast,300,2013-02-11 08:55:00
3:15 AM,28.4,26.6,93,29.60,0.8,WNW,24.2,38.0,N/A,,Overcast,300,2013-02-11 09:15:00
3:35 AM,26.6,24.8,93,29.62,2.0,WNW,24.2,34.5,N/A,,Overcast,300,2013-02-11 09:35:00
3:55 AM,26.6,24.8,93,29.63,1.8,WNW,25.3,33.4,N/A,,Overcast,300,2013-02-11 09:55:00
4:15 AM,26.6,24.8,93,29.65,3.0,NW,25.3,35.7,N/A,Snow,Light Snow,310,2013-02-11 10:15:00
4:35 AM,28.4,24.8,86,29.66,5.0,WNW,25.3,35.7,N/A,Snow,Light Snow,300,2013-02-11 10:35:00
4:55 AM,26.6,23.0,86,29.68,4.0,NW,34.5,46.0,N/A,Snow,Light Snow,310,2013-02-11 10:55:00
5:15 AM,26.6,23.0,86,29.69,6.0,NW,34.5,42.6,N/A,Snow,Light Snow,310,2013-02-11 11:15:00
5:35 AM,26.6,23.0,86,29.71,6.0,NW,25.3,40.3,N/A,Snow,Light Snow,310,2013-02-11 11:35:00
5:55 AM,26.6,21.2,80,29.72,10.0,NW,31.1,42.6,N/A,Snow,Light Snow,310,2013-02-11 11:55:00
6:15 AM,26.6,21.2,80,29.74,8.0,NW,27.6,40.3,N/A,Snow,Light Snow,310,2013-02-11 12:15:00
6:35 AM,24.8,21.2,86,29.75,8.0,NW,28.8,39.1,N/A,Snow,Light Snow,310,2013-02-11 12:35:00
6:55 AM,24.8,21.2,86,29.77,10.0,WNW,19.6,35.7,N/A,Snow,Light Snow,300,2013-02-11 12:55:00
7:15 AM,24.8,21.2,86,29.79,10.0,WNW,24.2,35.7,N/A,Snow,Light Snow,300,2013-02-11 13:15:00
7:35 AM,24.8,21.2,86,29.81,7.0,WNW,25.3,38.0,N/A,Snow,Light Snow,300,2013-02-11 13:35:00
7:55 AM,24.8,19.4,80,29.82,9.0,WNW,26.5,38.0,N/A,Snow,Light Snow,300,2013-02-11 13:55:00
8:15 AM,24.8,19.4,80,29.84,8.0,WNW,23.0,33.4,N/A,,Overcast,300,2013-02-11 14:15:00
8:35 AM,24.8,19.4,80,29.85,10.0,WNW,21.9,36.8,N/A,Snow,Light Snow,300,2013-02-11 14:35:00
8:55 AM,24.8,19.4,80,29.86,10.0,WNW,24.2,36.8,N/A,Snow,Light Snow,300,2013-02-11 14:55:00
9:15 AM,24.8,19.4,80,29.88,10.0,WNW,28.8,36.8,N/A,Snow,Light Snow,300,2013-02-11 15:15:00
9:35 AM,24.8,17.6,74,29.88,10.0,NW,27.6,35.7,N/A,Snow,Light Snow,310,2013-02-11 15:35:00
9:55 AM,24.8,19.4,80,29.90,10.0,NW,25.3,32.2,N/A,Snow,Light Snow,310,2013-02-11 15:55:00
10:15 AM,24.8,19.4,80,29.90,10.0,WNW,23.0,32.2,N/A,Snow,Light Snow,300,2013-02-11 16:15:00
10:35 AM,24.8,19.4,80,29.91,10.0,WNW,25.3,36.8,N/A,Snow,Light Snow,300,2013-02-11 16:35:00
10:55 AM,24.8,19.4,80,29.92,9.0,NW,27.6,38.0,N/A,Snow,Light Snow,310,2013-02-11 16:55:00
11:15 AM,26.6,17.6,69,29.93,10.0,NW,29.9,40.3,N/A,Snow,Light Snow,310,2013-02-11 17:15:00
11:35 AM,26.6,19.4,74,29.94,10.0,WNW,24.2,34.5,N/A,Snow,Light Snow,300,2013-02-11 17:35:00
11:55 AM,26.6,19.4,74,29.94,10.0,NW,19.6,33.4,N/A,Snow,Light Snow,310,2013-02-11 17:55:00
12:15 PM,26.6,19.4,74,29.95,10.0,NW,20.7,34.5,N/A,Snow,Light Snow,310,2013-02-11 18:15:00
12:35 PM,26.6,19.4,74,29.95,10.0,NW,23.0,33.4,N/A,Snow,Light Snow,310,2013-02-11 18:35:00
12:55 PM,26.6,19.4,74,29.96,10.0,WNW,24.2,36.8,N/A,Snow,Light Snow,300,2013-02-11 18:55:00
1:15 PM,26.6,19.4,74,29.97,10.0,NW,20.7,29.9,N/A,Snow,Light Snow,310,2013-02-11 19:15:00
1:35 PM,26.6,19.4,74,29.97,10.0,NW,21.9,28.8,N/A,Snow,Light Snow,310,2013-02-11 19:35:00
1:55 PM,26.6,19.4,74,29.97,9.0,NW,21.9,31.1,N/A,Snow,Light Snow,310,2013-02-11 19:55:00
2:15 PM,26.6,19.4,74,29.98,10.0,NW,23.0,34.5,N/A,Snow,Light Snow,310,2013-02-11 20:15:00
2:35 PM,24.8,19.4,80,29.98,10.0,NW,26.5,32.2,N/A,Snow,Light Snow,310,2013-02-11 20:35:00
2:55 PM,24.8,17.6,74,29.99,10.0,NW,25.3,33.4,N/A,Snow,Light Snow,310,2013-02-11 20:55:00
3:15 PM,24.8,19.4,80,29.99,10.0,NW,19.6,28.8,N/A,Snow,Light Snow,310,2013-02-11 21:15:00
3:35 PM,24.8,19.4,80,30.00,10.0,NW,17.3,25.3,N/A,Snow,Light Snow,320,2013-02-11 21:35:00
3:55 PM,24.8,17.6,74,30.01,10.0,NW,20.7,29.9,N/A,Snow,Light Snow,310,2013-02-11 21:55:00
4:55 PM,24.8,17.6,74,30.02,10.0,NW,15.0,24.2,N/A,Snow,Light Snow,310,2013-02-11 22:55:00
5:15 PM,24.8,17.6,74,30.03,10.0,NW,20.7,-,N/A,Snow,Light Snow,310,2013-02-11 23:15:00
5:35 PM,24.8,17.6,74,30.03,10.0,WNW,13.8,21.9,N/A,,Overcast,300,2013-02-11 23:35:00
5:55 PM,23.0,17.6,80,30.04,10.0,NW,19.6,-,N/A,,Overcast,310,2013-02-11 23:55:00
6:15 PM,23.0,17.6,80,30.04,10.0,NW,18.4,25.3,N/A,,Overcast,310,2013-02-12 00:15:00
6:35 PM,23.0,17.6,80,30.05,10.0,NW,17.3,23.0,N/A,,Overcast,310,2013-02-12 00:35:00
6:55 PM,23.0,17.6,80,30.05,10.0,NW,13.8,21.9,N/A,,Overcast,310,2013-02-12 00:55:00
7:15 PM,23.0,17.6,80,30.05,10.0,NW,15.0,-,N/A,,Overcast,310,2013-02-12 01:15:00
7:35 PM,23.0,17.6,80,30.05,10.0,WNW,10.4,19.6,N/A,,Overcast,300,2013-02-12 01:35:00
7:55 PM,24.8,17.6,74,30.05,10.0,WNW,16.1,-,N/A,,Overcast,290,2013-02-12 01:55:00
8:15 PM,23.0,17.6,80,30.05,10.0,WNW,15.0,-,N/A,,Overcast,300,2013-02-12 02:15:00
8:35 PM,23.0,17.6,80,30.06,10.0,WNW,16.1,-,N/A,,Overcast,300,2013-02-12 02:35:00
8:55 PM,21.2,15.8,80,30.06,10.0,WNW,19.6,-,N/A,,Scattered Clouds,290,2013-02-12 02:55:00
9:15 PM,21.2,17.6,86,30.06,10.0,WNW,16.1,-,N/A,,Mostly Cloudy,290,2013-02-12 03:15:00
9:35 PM,21.2,17.6,86,30.06,10.0,WNW,12.7,-,N/A,,Overcast,300,2013-02-12 03:35:00
9:55 PM,21.2,15.8,80,30.07,10.0,WNW,12.7,-,N/A,,Overcast,290,2013-02-12 03:55:00
10:15 PM,21.2,15.8,80,30.07,-9999.0,WNW,11.5,-,N/A,,Overcast,290,2013-02-12 04:15:00
10:35 PM,19.4,15.8,86,30.06,10.0,WNW,11.5,-,N/A,,Mostly Cloudy,290,2013-02-12 04:35:00
10:55 PM,21.2,15.8,80,30.07,10.0,WNW,10.4,-,N/A,,Overcast,300,2013-02-12 04:55:00
11:15 PM,21.2,15.8,80,30.07,10.0,NW,11.5,-,N/A,,Overcast,310,2013-02-12 05:15:00
11:35 PM,21.2,15.8,80,30.07,10.0,NW,11.5,-,N/A,,Overcast,310,2013-02-12 05:35:00
11:55 PM,21.2,15.8,80,30.08,10.0,WNW,8.1,-,N/A,,Overcast,300,2013-02-12 05:55:00